SITRO-AIS 51

Last updated on Thu Nov 21 2024 00:03:40 GMT+0000 (Coordinated Universal Time)

1 59062U 24039M 24325.56021710 .00068909 00000+0 14829-2 0 9995 2 59062 97.4079 288.0701 0014501 37.9298 322.2969 15.44280923 40583
UTC large
Height (km)
Speed (km/s)
/
Latitude / Longitude
Inclination (degrees)
Orbital Period (minutes)
Azimuth
Elevation
Range (km)
Doppler Factor

Next 0 passes for location: London (51.5072 / 0.1276)

Sorry there are no passes over London.